Epoch 2005 Nov. 6.0 TT = JDT 2453680.5 T 2005 Nov. 3.53225 TT MPC q 3.2470514 (2000.0) P Q n 0.05042924 Peri. 304.52025 +0.95205564 +0.00503880 a 7.2557294 Node 57.06556 +0.17310307 +0.81553366 e 0.5524845 Incl. 21.37396 -0.25224072 +0.57868770 P 19.54
m1 = 3.5 + 5 logΔ + 25.0 log r